Showing default

POPSAT HIP 1, 40028

Orbit data source: Space-Track

POPSAT HIP 1, 40028 is a payload satellite owned by MicroSpace Rapid (SG) in SSO that was launched on Thu, 19 Jun 2014 UTC via a DNEPR launch vehicle from the Orenburg, Russia (OREN). Payload-class satellites include a variety of spacecraft equipped with specific instruments for various scientific and technological missions. These include communications satellites like Starlink; space stations such as the ISS; scientific satellites like the Hubble; Earth observation satellites from companies like Planet Labs, Umbra, and HawkEye 360; GPS; miniature CubeSats for education and research; and military/defense satellites.

Loading next visibility...
Identifier
40028, 2014-033U
Orbit
SSO
Country
Flag of SGSG / SING
Related business
Manufacturer
MicroSpace Rapid
Mission
Non-operational Commercial Imaging
Bus & Motor
CUBESAT 3U, Unknown motor
Mass
~4 kg wet, ~4 kg dry
Launch date (UTC)
2014-06-19 (12 years ago)
Launch vehicle
DNEPR
Launch site
Orenburg, Russia (OREN)
Object type
Payload
Rocket body
Debris
Shape & HBR
Box, 0.1 m
Radar Cross Section
0.075 m², Medium (>0.1 m² and < 1m²)

Expand to show TLE details & history
Last TLE update: 23 hours ago

TLE from 23 hours ago
0 POPSAT HIP 1
1 40028U 14033U   26172.50205637  .00006205  00000-0  33348-3 0  9998
2 40028  98.0990 183.6636 0007126 166.5677 193.5744 15.15279785653454
Epoch: 2026-06-21T12:02Z
TLE epoch observation values (Epoch: 2026-06-21T12:02:57.670Z)
Latitude
-0.00007°
Longitude
93.22191°
Altitude
527.972 km
Speed
7.596 km/s
True Right ascension
12h 14m 39s
True Declination
0° 00' 00"
Sunlit
Object was in daylight at epoch
Visualization orbit readout
Latitude
Unknown
Longitude
Unknown
Altitude
Unknown
Speed
Unknown
Apparent Right ascension
Unknown
Apparent Declination
Unknown
Sunlit
N/A
Visualization observer readout
Local Sidereal Time
21:40:06
Azimuth
Unknown
Elevation
Unknown
Doppler factor
Unknown
Orbital elements
Apogee altitude
522.046 km
Perigee altitude
512.219 km
Semi-major axis
6,895.269 km
Eccentricity
0.00071
Inclination
98.099°
RAAN
183.6636°
Arg. of periapsis
166.5677°
True anomaly
193.55525°
Mean anomaly
193.5744°
Eccentric anomaly
193.56482°
Mean motion
3.79067 °/min
Orbital period
94.97 mins
BSTAR
0.00033348
Loading maneuver chart data...
Computing Atmospheric mass density...
Loading historical data...
Loading historical data...
Loading historical data...
Loading historical data...
Loading historical data...
Loading historical data...
Loading historical data...

Documentation

Showing up to 5 results
|